www.pogodaiklimat.ru

Погода и климат >> Архив погоды >> Россия >> Мурманская область >> Иоканьга


ПОГОДА в Иоканьге

  • Прогноз погоды в Иоканьге
  • Монитор погоды в Иоканьге

АРХИВ ПОГОДЫ в Иоканьге

Время (UTC), дата Ветер
(напр.,м/с)
 
Видим.   Явления Облачность Т
(С)
Тd
(С)
f
(%)
Тe
(С)
Тes
(С)
Комфортность P
(гПа)
Po
(гПа)
Тmin
(С)
Tmax
(С)
R
(мм)
R24
(мм)
S
(см)
06 12.02 Ю 7-11
{12}
н/о н/о -1.1 -3.9 81 -8 -8 995.1 984.9 -1.0
09 12.02 Ю 8-10
{11}
н/о н/о -1.8 -4.2 84 -10 -10 994.5 984.3
12 12.02 ЮЗ 10-12
{12}
н/о н/о -1.3 -4.2 81 -10 -10 994.5 984.3
15 12.02 З 7-11
{13}
н/о н/о -4.4 -7.4 80 -13 -13 996.3 986.0
18 12.02 ЮЗ 9-11
{11}
н/о н/о -7.6 -10.8 78 -17 -17 997.2 986.8 -1.0
21 12.02 ЮЗ 9-12
{14}
н/о н/о -8.0 -11.2 78 -18 -18 997.2 986.7
00 13.02 ЮЗ 9-11
{14}
н/о н/о -6.3 -9.7 77 -16 -16 997.0 986.6
03 13.02 ЮЗ 9-11
{12}
н/о н/о -5.9 -9.3 77 -15 -15 997.0 986.6 -8.6
06 13.02 ЮЗ 8-10
{12}
н/о н/о -4.5 -7.9 77 -13 -13 996.8 986.5 -8.6
09 13.02 З 8-10
{12}
н/о н/о -3.5 -6.5 80 -12 -12 997.8 987.4
12 13.02 СЗ 11-17
{17}
н/о н/о -2.4 -4.1 88 -12 -12 999.7 989.4
15 13.02 СЗ 11-17
{17}
н/о н/о -2.8 -6.7 74 -12 -12 1002.9 992.6
18 13.02 С 6-9
{17}
н/о н/о -3.4 -6.4 80 -11 -11 1005.9 995.5 -1.1
21 13.02 С 6-9
{14}
н/о н/о -2.3 -10.4 54 -9 -9 1008.0 997.7
00 14.02 СВ 4-7
{10}
н/о н/о -2.4 -9.7 57 -8 -8 1010.0 999.7
03 14.02 Ю 6-7
{8}
н/о н/о -7.1 -12.7 64 -15 -15 1012.2 1001.6 -5.8
06 14.02 Ю 9-11
{11}
н/о н/о -10.8 -15.6 68 -21 -21 1013.4 1002.7 -10.4
09 14.02 Ю 10-13
{13}
н/о н/о -12.9 -16.1 77 -24 -24 1012.9 1002.1
12 14.02 Ю 11-16
{16}
н/о н/о -10.5 -13.6 78 -22 -22 1009.0 998.2
15 14.02 Ю 13-20
{20}
н/о н/о -9.5 -11.9 83 -21 -21 1004.7 994.1
18 14.02 Ю 11-16
{23}
н/о н/о -7.5 -10.1 82 -18 -18 998.8 988.3 -7.6
21 14.02 Ю 16-24
{24}
н/о н/о -6.4 -8.7 84 -18 -18 989.9 979.5
00 15.02 Ю 17-24
{27}
н/о н/о -5.9 -8.2 84 -18 -18 983.6 973.4
03 15.02 Ю 9-12
{24}
н/о н/о -5.0 -8.0 79 -14 -14 982.6 972.4 -10.1
06 15.02 Ю 8-11
{14}
н/о н/о -3.9 -6.9 80 -12 -12 981.3 971.1 -7.6
09 15.02 З 7-12
{12}
н/о н/о -3.2 -6.4 79 -11 -11 982.6 972.5
12 15.02 З 8-12
{14}
н/о н/о -1.8 -4.6 81 -10 -10 984.5 974.4
15 15.02 СЗ 10-16
{19}
н/о н/о -0.3 -2.8 83 -9 -9 988.8 978.7
18 15.02 З 14-21
{22}
н/о н/о +0.4 -7.0 58 -8 -8 991.9 981.8 +0.7
21 15.02 СЗ 11-16
{23}
н/о н/о -1.2 -5.7 71 -10 -10 995.7 985.5
00 16.02 СЗ 11-17
{20}
н/о н/о -1.0 -9.2 54 -9 -9 997.9 987.7
03 16.02 СЗ 9-13
{18}
н/о н/о -2.1 -7.8 65 -10 -10 999.3 989.0 -3.2
06 16.02 З 5-8
{13}
н/о н/о -5.0 -7.9 80 -12 -12 999.6 989.3 -5.1
09 16.02 Ю 8-10
{11}
н/о н/о -8.7 -12.6 73 -18 -18 998.6 988.1
12 16.02 Ю 4-6
{10}
н/о н/о -5.2 -10.3 67 -11 -11 993.6 983.3
15 16.02 ЮВ 9-13
{14}
н/о н/о -4.7 -6.8 85 -14 -14 985.0 974.8
18 16.02 Ю 11-16
{17}
н/о н/о -2.7 -4.5 87 -12 -12 977.8 967.7 -2.7
21 16.02 ЮЗ 9-12
{16}
н/о н/о -1.9 -4.5 82 -10 -10 975.4 965.4
00 17.02 ЮЗ 6-8
{12}
н/о н/о -1.8 -4.2 84 -9 -9 974.2 964.2
03 17.02 З 4-7
{9}
н/о н/о -2.0 -3.5 89 -8 -8 974.5 964.5 -4.9
06 17.02 С 12-17
{17}
н/о н/о -2.1 -3.5 90 -12 -12 977.2 967.2 -2.8
09 17.02 С 14-19
{24}
н/о н/о -2.3 -5.4 79 -12 -12 985.2 975.0
12 17.02 С 14-17
{23}
н/о н/о -2.1 -9.7 56 -12 -12 991.5 981.3
15 17.02 СЗ 14-21
{24}
н/о н/о -3.6 -7.4 75 -14 -14 997.0 986.7
18 17.02 СЗ 12-19
{24}
н/о н/о -5.0 -9.5 71 -15 -15 1002.0 991.6 -1.7
21 17.02 СЗ 15-22
{24}
н/о н/о -6.9 -14.4 55 -18 -18 1004.4 993.9
00 18.02 СЗ 9-15
{23}
н/о н/о -7.6 -12.9 66 -17 -17 1006.7 996.1
03 18.02 СЗ 9-15
{21}
н/о н/о -8.1 -10.9 80 -18 -18 1007.6 997.0 -9.0

 

Местоположение метеостанции Иоканьга (Мурманская область, Россия): широта 68.05 долгота 39.50 высота над уровнем моря 82 м.

В архиве по умолчанию представлена погода в Иоканьге за последнюю неделю. Архивные данные за месяц целиком и за предыдущие месяцы, начиная с января 2011 года, Вы можете получить, выбрав интересующий диапазон дат из раскрывающегося списка и нажав кнопку "Ввод!".


*Определитесь, кто Вы:
робот инопланетянин человек

Внимание! Время в таблицах - всемирное. Для получения местного времени необходимо прибавить поправку, которая равна 3 ч.

Смотрите также архив погоды в соседних городах и на ближайших метеорологических станциях:

Погода в Святом Носе (Мурманская область, Россия) (16 км)
Погода в Каневке (Мурманская область, Россия) (103 км)
Погода в Краснощелье (Мурманская область, Россия) (129 км)
Погода в Канином Носе (Ненецкий АО, Россия) (170 км)
Погода на Сосновец Острове (Мурманская область, Россия) (182 км)
Погода в Туманной (Мурманская область, Россия) (183 км)
Погода в Дальних Зеленцах (Мурманская область, Россия) (183 км)
Погода в Ловозере (Мурманская область, Россия) (186 км)
Погода на Моржовец Острове (Архангельская область, Россия) (195 км)
Погода в Шойне (Ненецкий АО, Россия) (196 км)

Пояснения к столбцам:

Ветер - указаны скорость ветра в м/с - средняя за 10 мин, порывы в срок и между сроками (в фигурных скобках) и направление, откуда дует ветер: С - северный, СВ - северо-восточный, В - восточный, ЮВ - юго-восточный, Ю - южный, ЮЗ - юго-западный, З - западный, СЗ - северо-западный.
Видимость - горизонтальная дальность видимости в метрах или километрах. При видимости от 1 до 10 км при отсутствии осадков обычно наблюдается дымка, при ухудшении видимости до 1 км и менее - туман. В сухую погоду видимость может ухудшаться дымом, пылью или мглою.
Явления - указаны атмосферные явления, наблюдавшиеся в срок или в последний час перед сроком; фигурными скобками обозначены явления, наблюдавшиеся между сроками (за 1-3 часа до срока); квадратными скобками обозначены град или гололедные отложения с указанием их диаметра в мм.
Облачность - указаны через наклонную черту общая и нижняя облачность в баллах и высота нижней границы облаков в метрах; квадратными скобками обозначены формы облаков: Ci - перистые, Cs - перисто-слоистые, Cc - перисто-кучевые, Ac - высококучевые, As - высокослоистые, Sc - слоисто-кучевые, Ns - слоисто-дождевые, Cu - кучевые, Cb - кучево-дождевые. Подробнее классификацию облаков см. в Атласе облаков (PDF).
T - Температура воздуха - температура, измеренная на высоте 2 м над землей.
Td - Температура точки росы - температура, при понижении до которой содержащийся в воздухе водяной пар достигнет насыщения.
f - Относительная влажность воздуха - влажноcть воздуха, измеренная на высоте 2 м над землей.
Te - Эффективная температура - температура, которую ощущает одетый по сезону человек в тени. Характеристика душности погоды. При расчете учитывается влияние влажности воздуха и скорости ветра на теплоощущения человека.
Tes - Эффективная температура на солнце - температура, которую ощущает человек, с поправкой на солнечный нагрев. Характеристика знойности погоды. Зависит от высоты солнца над горизонтом, облачности и скорости ветра. Ночью, в пасмурную погоду, а также при ветре 12 м/с и более поправка равна нулю.
P - Атмосферное давление - приведенное к уровню моря атмосферное давление.
Po - Атмосферное давление - измеренное на уровне метеостанции атмосферное давление.
Tmin - Минимальная температура - минимум температуры воздуха на высоте 2 м над землей.
Tmax - Максимальная температура - максимум температуры воздуха на высоте 2 м над землей.
R - Количество осадков - Количество выпавших осадков за период времени, мм. При наведении курсора мыши на число - период времени, за который выпало указанное количество осадков.
R24 - Количество осадков - Количество выпавших осадков за 24 часа, мм.
S - Снежный покров - Высота снежного покрова, см. При наведении курсора мыши на число - состояние снежного покрова и степень покрытия местности в баллах.